Time,TemperatureF,DewpointF,PressureIn,WindDirection,WindDirectionDegrees,WindSpeedMPH,WindSpeedGustMPH,Humidity,HourlyPrecipIn,Conditions,Clouds,dailyrainin,SoftwareType,DateUTC
2013-04-16 00:00:00,45.6,35.6,30.29,SSW,194,2.0,2.0,68,0.00,,,0.00,Wunderground v.1.15,2013-04-16 04:00:00,
2013-04-16 00:01:00,45.5,35.5,30.29,SSE,151,1.0,2.0,68,0.00,,,0.00,Wunderground v.1.15,2013-04-16 04:01:00,
2013-04-16 00:04:00,45.4,35.8,30.29,South,181,1.0,3.0,69,0.00,,,0.00,Wunderground v.1.15,2013-04-16 04:04:00,
2013-04-16 00:08:00,45.4,35.8,30.29,South,186,2.0,3.0,69,0.00,,,0.00,Wunderground v.1.15,2013-04-16 04:08:00,
2013-04-16 00:09:00,45.5,35.9,30.29,SSW,205,2.0,3.0,69,0.00,,,0.00,Wunderground v.1.15,2013-04-16 04:09:00,
2013-04-16 00:14:00,45.7,36.1,30.29,SSW,204,2.0,6.0,69,0.00,,,0.00,Wunderground v.1.15,2013-04-16 04:14:00,
2013-04-16 00:19:00,45.5,35.9,30.29,SSE,151,2.0,6.0,69,0.00,,,0.00,Wunderground v.1.15,2013-04-16 04:19:00,
2013-04-16 00:24:00,45.4,36.2,30.29,WSW,257,1.0,2.0,70,0.00,,,0.00,Wunderground v.1.15,2013-04-16 04:24:00,
2013-04-16 00:29:00,45.1,35.9,30.29,SSW,199,1.0,2.0,70,0.00,,,0.00,Wunderground v.1.15,2013-04-16 04:29:00,
2013-04-16 00:34:00,45.1,36.3,30.29,South,184,1.0,2.0,71,0.00,,,0.00,Wunderground v.1.15,2013-04-16 04:34:00,
2013-04-16 00:39:00,45.3,36.4,30.29,SE,131,1.0,3.0,71,0.00,,,0.00,Wunderground v.1.15,2013-04-16 04:39:00,
2013-04-16 00:45:00,45.8,36.9,30.29,SE,133,2.0,4.0,71,0.00,,,0.00,Wunderground v.1.15,2013-04-16 04:45:00,
2013-04-16 00:50:00,46.1,36.9,30.30,SSW,194,2.0,2.0,70,0.00,,,0.00,Wunderground v.1.15,2013-04-16 04:50:00,
2013-04-16 00:55:00,46.3,37.0,30.30,South,184,2.0,3.0,70,0.00,,,0.00,Wunderground v.1.15,2013-04-16 04:55:00,
2013-04-16 01:00:00,46.4,37.1,30.30,ESE,103,1.0,1.0,70,0.00,,,0.00,Wunderground v.1.15,2013-04-16 05:00:00,
2013-04-16 01:06:00,46.5,37.6,30.29,SE,138,1.0,1.0,71,0.00,,,0.00,Wunderground v.1.15,2013-04-16 05:06:00,
2013-04-16 01:12:00,46.5,37.6,30.29,SSE,154,1.0,3.0,71,0.00,,,0.00,Wunderground v.1.15,2013-04-16 05:12:00,
2013-04-16 01:17:00,46.7,37.8,30.29,ESE,115,2.0,4.0,71,0.00,,,0.00,Wunderground v.1.15,2013-04-16 05:17:00,
2013-04-16 01:22:00,47.0,38.1,30.28,SSW,194,3.0,4.0,71,0.00,,,0.00,Wunderground v.1.15,2013-04-16 05:22:00,
2013-04-16 01:27:00,47.2,38.3,30.28,South,175,3.0,4.0,71,0.00,,,0.00,Wunderground v.1.15,2013-04-16 05:27:00,
2013-04-16 01:32:00,47.2,37.9,30.28,SSW,197,2.0,11.0,70,0.00,,,0.00,Wunderground v.1.15,2013-04-16 05:32:00,
2013-04-16 01:38:00,47.1,37.8,30.28,SSE,156,2.0,11.0,70,0.00,,,0.00,Wunderground v.1.15,2013-04-16 05:38:00,
2013-04-16 01:43:00,47.0,37.7,30.28,SE,131,2.0,11.0,70,0.00,,,0.00,Wunderground v.1.15,2013-04-16 05:43:00,
2013-04-16 01:48:00,46.9,37.3,30.28,SW,228,3.0,11.0,69,0.00,,,0.00,Wunderground v.1.15,2013-04-16 05:48:00,
2013-04-16 01:53:00,46.9,37.3,30.28,SW,235,3.0,11.0,69,0.00,,,0.00,Wunderground v.1.15,2013-04-16 05:53:00,
2013-04-16 01:58:00,46.8,37.2,30.29,SSE,166,2.0,11.0,69,0.00,,,0.00,Wunderground v.1.15,2013-04-16 05:58:00,
2013-04-16 02:03:00,46.8,36.8,30.29,WSW,250,3.0,11.0,68,0.00,,,0.00,Wunderground v.1.15,2013-04-16 06:03:00,
2013-04-16 02:08:00,46.7,36.7,30.28,SE,145,3.0,11.0,68,0.00,,,0.00,Wunderground v.1.15,2013-04-16 06:08:00,
2013-04-16 02:13:00,46.6,36.6,30.28,SSW,193,3.0,11.0,68,0.00,,,0.00,Wunderground v.1.15,2013-04-16 06:13:00,
2013-04-16 02:18:00,46.5,36.5,30.28,SSE,160,3.0,11.0,68,0.00,,,0.00,Wunderground v.1.15,2013-04-16 06:18:00,
2013-04-16 02:24:00,46.4,36.4,30.27,SSW,211,3.0,11.0,68,0.00,,,0.00,Wunderground v.1.15,2013-04-16 06:24:00,
2013-04-16 02:29:00,46.3,36.7,30.27,South,188,2.0,11.0,69,0.00,,,0.00,Wunderground v.1.15,2013-04-16 06:29:00,
2013-04-16 02:34:00,46.2,36.6,30.27,WNW,290,2.0,11.0,69,0.00,,,0.00,Wunderground v.1.15,2013-04-16 06:34:00,
2013-04-16 02:39:00,46.3,36.7,30.27,SSW,212,2.0,11.0,69,0.00,,,0.00,Wunderground v.1.15,2013-04-16 06:39:00,
2013-04-16 02:44:00,46.3,36.3,30.27,South,188,3.0,11.0,68,0.00,,,0.00,Wunderground v.1.15,2013-04-16 06:44:00,
2013-04-16 02:49:00,46.4,36.4,30.27,SSE,163,4.0,11.0,68,0.00,,,0.00,Wunderground v.1.15,2013-04-16 06:49:00,
2013-04-16 02:55:00,46.5,36.5,30.27,SW,221,3.0,11.0,68,0.00,,,0.00,Wunderground v.1.15,2013-04-16 06:55:00,
2013-04-16 03:00:00,46.5,36.9,30.27,SSW,211,3.0,3.0,69,0.00,,,0.00,Wunderground v.1.15,2013-04-16 07:00:00,
2013-04-16 03:05:00,46.6,36.6,30.27,SSE,167,3.0,11.0,68,0.00,,,0.00,Wunderground v.1.15,2013-04-16 07:05:00,
2013-04-16 03:10:00,46.5,36.9,30.26,South,186,3.0,11.0,69,0.00,,,0.00,Wunderground v.1.15,2013-04-16 07:10:00,
2013-04-16 03:15:00,46.6,37.0,30.26,South,186,3.0,11.0,69,0.00,,,0.00,Wunderground v.1.15,2013-04-16 07:15:00,
2013-04-16 03:20:00,46.7,36.7,30.26,SSW,205,3.0,3.0,68,0.00,,,0.00,Wunderground v.1.15,2013-04-16 07:20:00,
2013-04-16 03:26:00,46.7,37.1,30.26,ESE,109,3.0,11.0,69,0.00,,,0.00,Wunderground v.1.15,2013-04-16 07:26:00,
2013-04-16 03:31:00,46.8,37.2,30.26,SW,223,4.0,11.0,69,0.00,,,0.00,Wunderground v.1.15,2013-04-16 07:31:00,
2013-04-16 03:36:00,46.9,37.3,30.26,WSW,250,3.0,11.0,69,0.00,,,0.00,Wunderground v.1.15,2013-04-16 07:36:00,
2013-04-16 03:41:00,46.9,37.3,30.26,WNW,293,3.0,11.0,69,0.00,,,0.00,Wunderground v.1.15,2013-04-16 07:41:00,
2013-04-16 03:46:00,46.9,36.9,30.26,South,172,4.0,11.0,68,0.00,,,0.00,Wunderground v.1.15,2013-04-16 07:46:00,
2013-04-16 03:52:00,47.1,37.4,30.26,SSE,156,3.0,11.0,69,0.00,,,0.00,Wunderground v.1.15,2013-04-16 07:52:00,
2013-04-16 03:57:00,47.2,37.5,30.25,South,181,4.0,11.0,69,0.00,,,0.00,Wunderground v.1.15,2013-04-16 07:57:00,
2013-04-16 04:02:00,47.5,37.8,30.26,SE,135,5.0,11.0,69,0.00,,,0.00,Wunderground v.1.15,2013-04-16 08:02:00,
2013-04-16 04:07:00,47.7,38.0,30.25,SE,142,5.0,11.0,69,0.00,,,0.00,Wunderground v.1.15,2013-04-16 08:07:00,
2013-04-16 04:12:00,47.8,37.7,30.25,SE,145,4.0,11.0,68,0.00,,,0.00,Wunderground v.1.15,2013-04-16 08:12:00,
2013-04-16 04:17:00,47.8,38.1,30.25,SSE,147,4.0,11.0,69,0.00,,,0.00,Wunderground v.1.15,2013-04-16 08:17:00,
2013-04-16 04:22:00,48.0,38.3,30.25,SW,224,4.0,11.0,69,0.00,,,0.00,Wunderground v.1.15,2013-04-16 08:22:00,
2013-04-16 04:28:00,48.2,38.5,30.24,South,187,5.0,11.0,69,0.00,,,0.00,Wunderground v.1.15,2013-04-16 08:28:00,
2013-04-16 04:33:00,48.2,38.5,30.25,SSW,193,5.0,11.0,69,0.00,,,0.00,Wunderground v.1.15,2013-04-16 08:33:00,
2013-04-16 04:38:00,48.1,38.4,30.25,WNW,283,5.0,11.0,69,0.00,,,0.00,Wunderground v.1.15,2013-04-16 08:38:00,
2013-04-16 04:44:00,48.0,38.3,30.25,SW,217,4.0,11.0,69,0.00,,,0.00,Wunderground v.1.15,2013-04-16 08:44:00,
2013-04-16 04:49:00,48.0,38.3,30.25,SW,215,4.0,11.0,69,0.00,,,0.00,Wunderground v.1.15,2013-04-16 08:49:00,
2013-04-16 04:54:00,47.7,38.4,30.25,South,186,4.0,11.0,70,0.00,,,0.00,Wunderground v.1.15,2013-04-16 08:54:00,
2013-04-16 04:59:00,47.7,38.4,30.25,West,259,3.0,11.0,70,0.00,,,0.00,Wunderground v.1.15,2013-04-16 08:59:00,
2013-04-16 05:04:00,47.7,38.8,30.25,SW,229,4.0,11.0,71,0.00,,,0.00,Wunderground v.1.15,2013-04-16 09:04:00,
2013-04-16 05:10:00,47.6,38.7,30.25,SE,138,4.0,4.0,71,0.00,,,0.00,Wunderground v.1.15,2013-04-16 09:10:00,
2013-04-16 05:15:00,47.6,38.7,30.24,SSW,205,4.0,11.0,71,0.00,,,0.00,Wunderground v.1.15,2013-04-16 09:15:00,
2013-04-16 05:20:00,47.6,38.7,30.24,SSW,210,4.0,11.0,71,0.00,,,0.00,Wunderground v.1.15,2013-04-16 09:20:00,
2013-04-16 05:25:00,47.5,38.9,30.25,SW,225,3.0,11.0,72,0.00,,,0.00,Wunderground v.1.15,2013-04-16 09:25:00,
2013-04-16 05:30:00,47.6,39.4,30.24,WNW,290,3.0,11.0,73,0.00,,,0.00,Wunderground v.1.15,2013-04-16 09:30:00,
2013-04-16 05:35:00,47.8,39.6,30.24,South,172,4.0,11.0,73,0.00,,,0.00,Wunderground v.1.15,2013-04-16 09:35:00,
2013-04-16 05:40:00,48.1,39.9,30.25,East,87,4.0,4.0,73,0.00,,,0.00,Wunderground v.1.15,2013-04-16 09:40:00,
2013-04-16 05:45:00,48.4,40.1,30.24,ESE,122,4.0,11.0,73,0.00,,,0.00,Wunderground v.1.15,2013-04-16 09:45:00,
2013-04-16 05:50:00,48.6,40.0,30.24,SSW,212,3.0,11.0,72,0.00,,,0.00,Wunderground v.1.15,2013-04-16 09:50:00,
2013-04-16 05:55:00,48.7,40.1,30.24,SSW,206,3.0,11.0,72,0.00,,,0.00,Wunderground v.1.15,2013-04-16 09:55:00,
2013-04-16 06:00:00,48.9,40.3,30.24,South,174,3.0,11.0,72,0.00,,,0.00,Wunderground v.1.15,2013-04-16 10:00:00,
2013-04-16 06:05:00,49.1,40.5,30.24,South,183,3.0,11.0,72,0.00,,,0.00,Wunderground v.1.15,2013-04-16 10:05:00,
2013-04-16 06:11:00,49.3,40.7,30.24,SSW,197,3.0,11.0,72,0.00,,,0.00,Wunderground v.1.15,2013-04-16 10:11:00,
2013-04-16 06:16:00,49.3,41.0,30.24,SSE,152,3.0,11.0,73,0.00,,,0.00,Wunderground v.1.15,2013-04-16 10:16:00,
2013-04-16 06:21:00,49.5,41.6,30.24,WSW,250,4.0,11.0,74,0.00,,,0.00,Wunderground v.1.15,2013-04-16 10:21:00,
2013-04-16 06:26:00,49.7,41.7,30.24,SSE,162,4.0,11.0,74,0.00,,,0.00,Wunderground v.1.15,2013-04-16 10:26:00,
2013-04-16 06:31:00,49.7,42.1,30.23,SSW,193,3.0,11.0,75,0.00,,,0.00,Wunderground v.1.15,2013-04-16 10:31:00,
2013-04-16 06:37:00,49.8,42.2,30.23,WSW,243,4.0,11.0,75,0.00,,,0.00,Wunderground v.1.15,2013-04-16 10:37:00,
2013-04-16 06:42:00,50.0,42.4,30.23,South,190,5.0,11.0,75,0.00,,,0.00,Wunderground v.1.15,2013-04-16 10:42:00,
2013-04-16 06:47:00,50.0,42.4,30.23,South,177,4.0,11.0,75,0.00,,,0.00,Wunderground v.1.15,2013-04-16 10:47:00,
2013-04-16 06:52:00,50.1,42.5,30.23,SW,219,4.0,11.0,75,0.00,,,0.00,Wunderground v.1.15,2013-04-16 10:52:00,
2013-04-16 06:57:00,50.2,42.6,30.23,SSW,210,4.0,11.0,75,0.00,,,0.00,Wunderground v.1.15,2013-04-16 10:57:00,
2013-04-16 07:02:00,50.2,42.9,30.23,SSW,200,4.0,11.0,76,0.00,,,0.00,Wunderground v.1.15,2013-04-16 11:02:00,
2013-04-16 07:07:00,50.2,42.9,30.23,West,266,5.0,11.0,76,0.00,,,0.00,Wunderground v.1.15,2013-04-16 11:07:00,
2013-04-16 07:13:00,50.1,43.2,30.23,SW,216,5.0,11.0,77,0.00,,,0.00,Wunderground v.1.15,2013-04-16 11:13:00,
2013-04-16 07:18:00,50.2,43.3,30.23,SW,215,5.0,11.0,77,0.00,,,0.00,Wunderground v.1.15,2013-04-16 11:18:00,
2013-04-16 07:23:00,50.1,43.5,30.23,SW,224,5.0,11.0,78,0.00,,,0.00,Wunderground v.1.15,2013-04-16 11:23:00,
2013-04-16 07:28:00,50.1,43.8,30.22,South,174,4.0,11.0,79,0.00,,,0.00,Wunderground v.1.15,2013-04-16 11:28:00,
2013-04-16 07:34:00,50.5,44.2,30.22,West,271,5.0,11.0,79,0.00,,,0.00,Wunderground v.1.15,2013-04-16 11:34:00,
2013-04-16 07:39:00,50.9,44.6,30.22,SW,229,5.0,13.0,79,0.00,,,0.00,Wunderground v.1.15,2013-04-16 11:39:00,
2013-04-16 07:44:00,51.1,44.8,30.22,ENE,68,5.0,11.0,79,0.00,,,0.00,Wunderground v.1.15,2013-04-16 11:44:00,
2013-04-16 07:49:00,51.1,44.8,30.23,SW,229,4.0,11.0,79,0.00,,,0.00,Wunderground v.1.15,2013-04-16 11:49:00,
2013-04-16 07:54:00,51.2,45.2,30.22,South,186,5.0,11.0,80,0.00,,,0.00,Wunderground v.1.15,2013-04-16 11:54:00,
2013-04-16 08:00:00,51.2,44.9,30.22,SE,138,5.0,11.0,79,0.00,,,0.00,Wunderground v.1.15,2013-04-16 12:00:00,
2013-04-16 08:05:00,51.3,45.3,30.22,SE,129,6.0,11.0,80,0.00,,,0.00,Wunderground v.1.15,2013-04-16 12:05:00,
2013-04-16 08:10:00,51.4,45.4,30.21,SSW,193,7.0,7.0,80,0.00,,,0.00,Wunderground v.1.15,2013-04-16 12:10:00,
2013-04-16 08:15:00,51.5,45.5,30.22,WSW,243,6.0,11.0,80,0.00,,,0.00,Wunderground v.1.15,2013-04-16 12:15:00,
2013-04-16 08:20:00,51.6,45.6,30.23,WSW,253,7.0,11.0,80,0.00,,,0.00,Wunderground v.1.15,2013-04-16 12:20:00,
2013-04-16 08:26:00,51.6,45.6,30.23,South,184,6.0,11.0,80,0.00,,,0.00,Wunderground v.1.15,2013-04-16 12:26:00,
2013-04-16 08:31:00,51.5,45.5,30.22,SW,226,5.0,11.0,80,0.00,,,0.00,Wunderground v.1.15,2013-04-16 12:31:00,
2013-04-16 08:36:00,51.4,45.8,30.22,SSW,200,4.0,11.0,81,0.00,,,0.00,Wunderground v.1.15,2013-04-16 12:36:00,
2013-04-16 08:41:00,51.6,45.6,30.21,South,191,5.0,11.0,80,0.00,,,0.00,Wunderground v.1.15,2013-04-16 12:41:00,
2013-04-16 08:46:00,51.6,45.6,30.21,West,262,6.0,11.0,80,0.00,,,0.00,Wunderground v.1.15,2013-04-16 12:46:00,
2013-04-16 08:51:00,51.6,45.6,30.22,WSW,255,5.0,11.0,80,0.00,,,0.00,Wunderground v.1.15,2013-04-16 12:51:00,
2013-04-16 08:56:00,51.6,46.0,30.21,WNW,294,5.0,11.0,81,0.00,,,0.00,Wunderground v.1.15,2013-04-16 12:56:00,
2013-04-16 09:02:00,51.7,46.1,30.21,WSW,255,5.0,11.0,81,0.00,,,0.00,Wunderground v.1.15,2013-04-16 13:02:00,
2013-04-16 09:07:00,51.7,46.1,30.21,SSW,198,6.0,11.0,81,0.00,,,0.00,Wunderground v.1.15,2013-04-16 13:07:00,
2013-04-16 09:12:00,51.9,46.3,30.22,SW,224,5.0,11.0,81,0.00,,,0.00,Wunderground v.1.15,2013-04-16 13:12:00,
2013-04-16 09:18:00,52.0,46.7,30.22,South,170,6.0,12.0,82,0.00,,,0.00,Wunderground v.1.15,2013-04-16 13:18:00,
2013-04-16 09:23:00,52.0,46.7,30.21,SSW,196,7.0,11.0,82,0.00,,,0.00,Wunderground v.1.15,2013-04-16 13:23:00,
2013-04-16 09:28:00,52.0,46.7,30.21,WSW,240,7.0,11.0,82,0.00,,,0.00,Wunderground v.1.15,2013-04-16 13:28:00,
2013-04-16 09:33:00,52.0,46.7,30.21,WNW,293,6.0,11.0,82,0.00,,,0.00,Wunderground v.1.15,2013-04-16 13:33:00,
2013-04-16 09:38:00,51.9,46.6,30.21,ENE,68,6.0,11.0,82,0.00,,,0.00,Wunderground v.1.15,2013-04-16 13:38:00,
2013-04-16 09:43:00,51.9,46.9,30.20,SSW,204,6.0,11.0,83,0.00,,,0.00,Wunderground v.1.15,2013-04-16 13:43:00,
2013-04-16 09:49:00,52.0,47.0,30.20,SE,131,6.0,11.0,83,0.00,,,0.00,Wunderground v.1.15,2013-04-16 13:49:00,
2013-04-16 09:54:00,52.2,47.2,30.19,SW,229,6.0,11.0,83,0.00,,,0.00,Wunderground v.1.15,2013-04-16 13:54:00,
2013-04-16 10:00:00,52.3,47.3,30.20,WSW,255,6.0,6.0,83,0.00,,,0.00,Wunderground v.1.15,2013-04-16 14:00:00,
2013-04-16 10:05:00,52.5,47.5,30.20,SW,225,6.0,12.0,83,0.00,,,0.00,Wunderground v.1.15,2013-04-16 14:05:00,
2013-04-16 10:10:00,52.6,47.6,30.19,SW,221,5.0,11.0,83,0.00,,,0.00,Wunderground v.1.15,2013-04-16 14:10:00,
2013-04-16 10:15:00,52.7,47.7,30.19,SSW,204,5.0,12.0,83,0.00,,,0.00,Wunderground v.1.15,2013-04-16 14:15:00,
2013-04-16 10:20:00,52.8,47.8,30.18,SW,215,5.0,11.0,83,0.00,,,0.00,Wunderground v.1.15,2013-04-16 14:20:00,
2013-04-16 10:26:00,52.8,47.8,30.19,East,93,5.0,11.0,83,0.00,,,0.00,Wunderground v.1.15,2013-04-16 14:26:00,
2013-04-16 10:31:00,52.8,47.8,30.18,SSE,166,6.0,11.0,83,0.00,,,0.00,Wunderground v.1.15,2013-04-16 14:31:00,
2013-04-16 10:36:00,53.1,48.1,30.18,East,97,6.0,11.0,83,0.00,,,0.00,Wunderground v.1.15,2013-04-16 14:36:00,
2013-04-16 10:41:00,53.3,48.3,30.17,SW,225,6.0,11.0,83,0.00,,,0.00,Wunderground v.1.15,2013-04-16 14:41:00,
2013-04-16 10:46:00,53.8,48.4,30.16,SSW,196,7.0,14.0,82,0.00,,,0.00,Wunderground v.1.15,2013-04-16 14:46:00,
2013-04-16 10:52:00,54.0,48.6,30.17,South,180,8.0,11.0,82,0.00,,,0.00,Wunderground v.1.15,2013-04-16 14:52:00,
2013-04-16 10:57:00,54.5,48.8,30.17,South,184,6.0,11.0,81,0.00,,,0.00,Wunderground v.1.15,2013-04-16 14:57:00,
2013-04-16 11:02:00,54.6,48.9,30.18,West,276,6.0,11.0,81,0.00,,,0.00,Wunderground v.1.15,2013-04-16 15:02:00,
2013-04-16 11:07:00,54.6,48.9,30.17,SSW,196,6.0,11.0,81,0.00,,,0.00,Wunderground v.1.15,2013-04-16 15:07:00,
2013-04-16 11:12:00,54.7,49.0,30.17,South,172,6.0,11.0,81,0.00,,,0.00,Wunderground v.1.15,2013-04-16 15:12:00,
2013-04-16 11:17:00,54.6,48.6,30.17,ESE,113,5.0,11.0,80,0.00,,,0.00,Wunderground v.1.15,2013-04-16 15:17:00,
2013-04-16 11:23:00,54.2,48.5,30.17,WSW,243,6.0,11.0,81,0.00,,,0.00,Wunderground v.1.15,2013-04-16 15:23:00,
2013-04-16 11:28:00,54.1,48.7,30.17,WSW,257,7.0,11.0,82,0.00,,,0.00,Wunderground v.1.15,2013-04-16 15:28:00,
2013-04-16 11:33:00,53.9,48.5,30.17,SSW,212,7.0,11.0,82,0.00,,,0.00,Wunderground v.1.15,2013-04-16 15:33:00,
2013-04-16 11:38:00,53.9,48.5,30.17,SSW,196,6.0,11.0,82,0.00,,,0.00,Wunderground v.1.15,2013-04-16 15:38:00,
2013-04-16 11:43:00,53.9,48.9,30.17,WSW,253,6.0,13.0,83,0.00,,,0.00,Wunderground v.1.15,2013-04-16 15:43:00,
2013-04-16 11:48:00,53.7,48.7,30.17,SW,226,6.0,13.0,83,0.00,,,0.00,Wunderground v.1.15,2013-04-16 15:48:00,
2013-04-16 11:53:00,53.6,48.6,30.17,SSE,148,7.0,11.0,83,0.00,,,0.00,Wunderground v.1.15,2013-04-16 15:53:00,
2013-04-16 11:58:00,53.6,48.6,30.17,ESE,113,7.0,11.0,83,0.00,,,0.00,Wunderground v.1.15,2013-04-16 15:58:00,
2013-04-16 12:04:00,53.4,48.4,30.17,SSW,198,6.0,13.0,83,0.00,,,0.00,Wunderground v.1.15,2013-04-16 16:04:00,
2013-04-16 12:09:00,53.4,48.4,30.17,SW,225,6.0,13.0,83,0.00,,,0.00,Wunderground v.1.15,2013-04-16 16:09:00,
2013-04-16 12:15:00,53.3,48.3,30.17,SE,131,5.0,11.0,83,0.00,,,0.00,Wunderground v.1.15,2013-04-16 16:15:00,
2013-04-16 12:20:00,53.3,48.3,30.16,SSW,201,5.0,11.0,83,0.00,,,0.00,Wunderground v.1.15,2013-04-16 16:20:00,
2013-04-16 12:25:00,53.5,48.8,30.16,SSE,153,5.0,12.0,84,0.00,,,0.00,Wunderground v.1.15,2013-04-16 16:25:00,
2013-04-16 12:30:00,53.7,48.7,30.15,SSW,212,6.0,6.0,83,0.00,,,0.00,Wunderground v.1.15,2013-04-16 16:30:00,
2013-04-16 12:36:00,53.7,48.7,30.15,SE,138,6.0,11.0,83,0.00,,,0.00,Wunderground v.1.15,2013-04-16 16:36:00,
2013-04-16 12:41:00,53.8,48.8,30.15,WSW,258,6.0,11.0,83,0.00,,,0.00,Wunderground v.1.15,2013-04-16 16:41:00,
2013-04-16 12:46:00,54.1,49.1,30.15,WSW,253,5.0,11.0,83,0.00,,,0.00,Wunderground v.1.15,2013-04-16 16:46:00,
2013-04-16 12:51:00,54.2,49.1,30.15,SW,214,6.0,11.0,83,0.00,,,0.00,Wunderground v.1.15,2013-04-16 16:51:00,
2013-04-16 12:56:00,54.3,48.9,30.15,West,270,7.0,11.0,82,0.00,,,0.00,Wunderground v.1.15,2013-04-16 16:56:00,
2013-04-16 13:02:00,54.4,49.0,30.15,SE,139,6.0,11.0,82,0.00,,,0.00,Wunderground v.1.15,2013-04-16 17:02:00,
2013-04-16 13:07:00,54.4,49.0,30.16,SSW,198,6.0,12.0,82,0.00,,,0.00,Wunderground v.1.15,2013-04-16 17:07:00,
2013-04-16 13:12:00,54.1,49.1,30.16,SSW,212,6.0,11.0,83,0.00,,,0.00,Wunderground v.1.15,2013-04-16 17:12:00,
2013-04-16 13:17:00,53.8,48.8,30.15,WSW,238,5.0,11.0,83,0.00,,,0.00,Wunderground v.1.15,2013-04-16 17:17:00,
2013-04-16 13:22:00,53.5,48.8,30.15,SSW,212,5.0,11.0,84,0.00,,,0.00,Wunderground v.1.15,2013-04-16 17:22:00,
2013-04-16 13:28:00,53.2,48.8,30.15,West,269,5.0,11.0,85,0.00,,,0.00,Wunderground v.1.15,2013-04-16 17:28:00,
2013-04-16 13:33:00,52.9,49.1,30.16,SE,141,6.0,11.0,87,0.00,,,0.00,Wunderground v.1.15,2013-04-16 17:33:00,
2013-04-16 13:38:00,52.4,48.9,30.17,WNW,289,6.0,11.0,88,0.00,,,0.01,Wunderground v.1.15,2013-04-16 17:38:00,
2013-04-16 13:43:00,51.9,48.8,30.16,SW,222,6.0,11.0,89,0.09,,,0.02,Wunderground v.1.15,2013-04-16 17:43:00,
2013-04-16 13:48:00,51.5,49.0,30.16,SSE,152,6.0,11.0,91,0.16,,,0.03,Wunderground v.1.15,2013-04-16 17:48:00,
2013-04-16 13:54:00,51.1,48.9,30.16,SSE,167,5.0,11.0,92,0.17,,,0.05,Wunderground v.1.15,2013-04-16 17:54:00,
2013-04-16 13:59:00,50.9,48.9,30.16,ESE,110,5.0,15.0,93,0.45,,,0.08,Wunderground v.1.15,2013-04-16 17:59:00,
2013-04-16 14:04:00,50.9,48.9,30.15,SSE,165,5.0,11.0,93,0.28,,,0.10,Wunderground v.1.15,2013-04-16 18:04:00,
2013-04-16 14:09:00,51.0,49.0,30.15,WSW,246,5.0,11.0,93,0.39,,,0.13,Wunderground v.1.15,2013-04-16 18:09:00,
2013-04-16 14:14:00,51.1,49.1,30.15,ESE,108,5.0,11.0,93,0.18,,,0.14,Wunderground v.1.15,2013-04-16 18:14:00,
2013-04-16 14:20:00,51.2,49.2,30.14,South,183,5.0,5.0,93,0.07,,,0.14,Wunderground v.1.15,2013-04-16 18:20:00,
2013-04-16 14:25:00,51.2,49.5,30.14,SSW,194,5.0,11.0,94,0.06,,,0.15,Wunderground v.1.15,2013-04-16 18:25:00,
2013-04-16 14:30:00,51.4,49.7,30.14,WNW,283,5.0,5.0,94,0.12,,,0.16,Wunderground v.1.15,2013-04-16 18:30:00,
2013-04-16 14:35:00,51.5,49.8,30.14,WSW,238,4.0,11.0,94,0.07,,,0.16,Wunderground v.1.15,2013-04-16 18:35:00,
2013-04-16 14:40:00,51.6,49.6,30.14,South,172,4.0,11.0,93,0.04,,,0.16,Wunderground v.1.15,2013-04-16 18:40:00,
2013-04-16 14:46:00,51.6,49.6,30.15,West,263,4.0,11.0,93,0.00,,,0.16,Wunderground v.1.15,2013-04-16 18:46:00,
2013-04-16 14:51:00,51.6,49.6,30.14,WSW,257,4.0,11.0,93,0.00,,,0.17,Wunderground v.1.15,2013-04-16 18:51:00,
2013-04-16 14:56:00,51.7,49.7,30.14,SSW,193,5.0,11.0,93,0.00,,,0.17,Wunderground v.1.15,2013-04-16 18:56:00,
2013-04-16 15:01:00,51.7,49.7,30.12,West,277,4.0,11.0,93,0.00,,,0.17,Wunderground v.1.15,2013-04-16 19:01:00,
2013-04-16 15:06:00,51.8,50.1,30.12,SSE,149,4.0,11.0,94,0.00,,,0.17,Wunderground v.1.15,2013-04-16 19:06:00,
2013-04-16 15:12:00,52.1,50.4,30.10,South,170,4.0,11.0,94,0.00,,,0.17,Wunderground v.1.15,2013-04-16 19:12:00,
2013-04-16 15:17:00,52.7,50.7,30.11,SSW,202,5.0,11.0,93,0.00,,,0.17,Wunderground v.1.15,2013-04-16 19:17:00,
2013-04-16 15:22:00,53.3,51.0,30.10,West,263,5.0,11.0,92,0.00,,,0.17,Wunderground v.1.15,2013-04-16 19:22:00,
2013-04-16 15:27:00,53.4,50.8,30.10,ESE,110,5.0,11.0,91,0.00,,,0.17,Wunderground v.1.15,2013-04-16 19:27:00,
2013-04-16 15:32:00,53.6,51.0,30.10,WNW,283,5.0,14.0,91,0.00,,,0.17,Wunderground v.1.15,2013-04-16 19:32:00,
2013-04-16 15:37:00,53.8,51.2,30.09,SW,231,5.0,14.0,91,0.00,,,0.18,Wunderground v.1.15,2013-04-16 19:37:00,
2013-04-16 15:42:00,54.0,51.1,30.09,SSW,193,5.0,11.0,90,0.00,,,0.18,Wunderground v.1.15,2013-04-16 19:42:00,
2013-04-16 15:47:00,54.1,51.2,30.09,SW,231,4.0,11.0,90,0.00,,,0.18,Wunderground v.1.15,2013-04-16 19:47:00,
2013-04-16 15:53:00,54.0,51.1,30.09,SSW,197,4.0,11.0,90,0.00,,,0.18,Wunderground v.1.15,2013-04-16 19:53:00,
2013-04-16 15:58:00,53.9,51.0,30.08,South,191,4.0,11.0,90,0.00,,,0.18,Wunderground v.1.15,2013-04-16 19:58:00,
2013-04-16 16:03:00,53.8,50.9,30.08,SSW,212,5.0,11.0,90,0.00,,,0.18,Wunderground v.1.15,2013-04-16 20:03:00,
2013-04-16 16:08:00,53.7,51.1,30.08,SSW,200,6.0,12.0,91,0.00,,,0.18,Wunderground v.1.15,2013-04-16 20:08:00,
2013-04-16 16:13:00,53.6,51.0,30.08,West,260,6.0,11.0,91,0.00,,,0.18,Wunderground v.1.15,2013-04-16 20:13:00,
2013-04-16 16:18:00,53.5,50.9,30.08,South,190,6.0,11.0,91,0.00,,,0.18,Wunderground v.1.15,2013-04-16 20:18:00,
2013-04-16 16:23:00,53.5,50.9,30.08,SW,225,5.0,11.0,91,0.00,,,0.18,Wunderground v.1.15,2013-04-16 20:23:00,
2013-04-16 16:29:00,53.7,51.1,30.07,SW,222,5.0,11.0,91,0.00,,,0.18,Wunderground v.1.15,2013-04-16 20:29:00,
2013-04-16 16:34:00,53.9,51.3,30.06,SSE,162,4.0,11.0,91,0.00,,,0.18,Wunderground v.1.15,2013-04-16 20:34:00,
2013-04-16 16:40:00,54.4,51.8,30.06,South,174,4.0,11.0,91,0.00,,,0.18,Wunderground v.1.15,2013-04-16 20:40:00,
2013-04-16 16:45:00,54.8,52.2,30.06,South,185,4.0,11.0,91,0.00,,,0.18,Wunderground v.1.15,2013-04-16 20:45:00,
2013-04-16 16:50:00,55.0,52.1,30.06,SSW,212,5.0,11.0,90,0.00,,,0.18,Wunderground v.1.15,2013-04-16 20:50:00,
2013-04-16 16:55:00,55.2,52.3,30.06,SSE,160,5.0,11.0,90,0.00,,,0.18,Wunderground v.1.15,2013-04-16 20:55:00,
2013-04-16 17:00:00,55.5,52.3,30.06,WNW,302,4.0,11.0,89,0.00,,,0.18,Wunderground v.1.15,2013-04-16 21:00:00,
2013-04-16 17:05:00,55.8,52.6,30.07,South,173,5.0,11.0,89,0.00,,,0.18,Wunderground v.1.15,2013-04-16 21:05:00,
2013-04-16 17:10:00,55.8,52.3,30.07,SW,227,5.0,11.0,88,0.00,,,0.18,Wunderground v.1.15,2013-04-16 21:10:00,
2013-04-16 17:16:00,55.8,52.3,30.07,NW,312,6.0,11.0,88,0.00,,,0.18,Wunderground v.1.15,2013-04-16 21:16:00,
2013-04-16 17:21:00,55.9,52.4,30.07,WSW,254,6.0,11.0,88,0.00,,,0.18,Wunderground v.1.15,2013-04-16 21:21:00,
2013-04-16 17:27:00,55.8,52.3,30.07,SSE,158,6.0,11.0,88,0.00,,,0.18,Wunderground v.1.15,2013-04-16 21:27:00,
2013-04-16 17:32:00,55.8,52.3,30.07,South,171,5.0,11.0,88,0.00,,,0.18,Wunderground v.1.15,2013-04-16 21:32:00,
2013-04-16 17:37:00,55.7,52.5,30.07,West,265,4.0,11.0,89,0.00,,,0.18,Wunderground v.1.15,2013-04-16 21:37:00,
2013-04-16 17:42:00,55.6,52.4,30.06,SW,219,4.0,11.0,89,0.00,,,0.18,Wunderground v.1.15,2013-04-16 21:42:00,
2013-04-16 17:47:00,55.5,52.3,30.07,SW,221,4.0,11.0,89,0.00,,,0.18,Wunderground v.1.15,2013-04-16 21:47:00,
2013-04-16 17:52:00,55.5,52.3,30.06,SSW,204,4.0,11.0,89,0.00,,,0.18,Wunderground v.1.15,2013-04-16 21:52:00,
2013-04-16 17:57:00,55.6,52.4,30.06,WSW,252,4.0,11.0,89,0.00,,,0.18,Wunderground v.1.15,2013-04-16 21:57:00,
2013-04-16 18:03:00,55.8,52.6,30.06,SSW,211,5.0,11.0,89,0.00,,,0.18,Wunderground v.1.15,2013-04-16 22:03:00,
2013-04-16 18:08:00,55.8,52.3,30.07,SE,143,5.0,11.0,88,0.00,,,0.18,Wunderground v.1.15,2013-04-16 22:08:00,
2013-04-16 18:13:00,55.8,52.6,30.07,SE,146,4.0,11.0,89,0.00,,,0.18,Wunderground v.1.15,2013-04-16 22:13:00,
2013-04-16 18:18:00,55.8,52.6,30.07,South,183,4.0,11.0,89,0.00,,,0.18,Wunderground v.1.15,2013-04-16 22:18:00,
2013-04-16 18:23:00,55.7,52.5,30.07,SW,233,4.0,12.0,89,0.00,,,0.18,Wunderground v.1.15,2013-04-16 22:23:00,
2013-04-16 18:28:00,55.7,52.5,30.07,NW,325,4.0,12.0,89,0.00,,,0.18,Wunderground v.1.15,2013-04-16 22:28:00,
2013-04-16 18:33:00,55.8,52.6,30.07,SSE,158,5.0,11.0,89,0.00,,,0.18,Wunderground v.1.15,2013-04-16 22:33:00,
2013-04-16 18:38:00,55.8,52.6,30.07,SSE,155,5.0,11.0,89,0.00,,,0.18,Wunderground v.1.15,2013-04-16 22:38:00,
2013-04-16 18:43:00,55.9,52.7,30.06,SSW,196,6.0,11.0,89,0.00,,,0.18,Wunderground v.1.15,2013-04-16 22:43:00,
2013-04-16 18:49:00,56.0,52.8,30.06,SSW,209,5.0,11.0,89,0.00,,,0.18,Wunderground v.1.15,2013-04-16 22:49:00,
2013-04-16 18:55:00,56.0,52.8,30.06,SW,229,5.0,11.0,89,0.00,,,0.18,Wunderground v.1.15,2013-04-16 22:55:00,
2013-04-16 19:00:00,56.1,52.9,30.06,SW,221,4.0,11.0,89,0.00,,,0.18,Wunderground v.1.15,2013-04-16 23:00:00,
2013-04-16 19:05:00,56.1,52.9,30.06,SSW,208,5.0,14.0,89,0.00,,,0.18,Wunderground v.1.15,2013-04-16 23:05:00,
2013-04-16 19:10:00,56.1,52.9,30.05,WSW,243,4.0,11.0,89,0.00,,,0.18,Wunderground v.1.15,2013-04-16 23:10:00,
2013-04-16 19:15:00,56.1,52.9,30.05,SW,236,4.0,11.0,89,0.00,,,0.18,Wunderground v.1.15,2013-04-16 23:15:00,
2013-04-16 19:21:00,56.0,52.8,30.05,SW,221,4.0,11.0,89,0.00,,,0.18,Wunderground v.1.15,2013-04-16 23:21:00,
2013-04-16 19:26:00,56.1,52.9,30.05,WSW,243,4.0,12.0,89,0.00,,,0.18,Wunderground v.1.15,2013-04-16 23:26:00,
2013-04-16 19:31:00,56.2,53.0,30.05,West,264,4.0,6.0,89,0.00,,,0.18,Wunderground v.1.15,2013-04-16 23:31:00,
2013-04-16 19:36:00,56.4,52.9,30.05,West,259,5.0,11.0,88,0.00,,,0.18,Wunderground v.1.15,2013-04-16 23:36:00,
2013-04-16 19:41:00,56.5,53.0,30.04,SSE,162,5.0,11.0,88,0.00,,,0.18,Wunderground v.1.15,2013-04-16 23:41:00,
2013-04-16 19:46:00,56.5,53.0,30.05,WNW,302,5.0,11.0,88,0.00,,,0.18,Wunderground v.1.15,2013-04-16 23:46:00,
2013-04-16 19:52:00,56.5,53.0,30.05,SE,124,5.0,11.0,88,0.00,,,0.18,Wunderground v.1.15,2013-04-16 23:52:00,
2013-04-16 19:57:00,56.6,53.1,30.05,NE,54,4.0,11.0,88,0.00,,,0.18,Wunderground v.1.15,2013-04-16 23:57:00,
2013-04-16 20:02:00,56.6,53.1,30.04,SSE,166,6.0,11.0,88,0.00,,,0.18,Wunderground v.1.15,2013-04-17 00:02:00,
2013-04-16 20:07:00,56.5,53.0,30.05,NNE,18,6.0,11.0,88,0.00,,,0.18,Wunderground v.1.15,2013-04-17 00:07:00,
2013-04-16 20:12:00,56.5,53.0,30.05,SW,221,6.0,11.0,88,0.00,,,0.18,Wunderground v.1.15,2013-04-17 00:12:00,
2013-04-16 20:17:00,56.7,53.2,30.05,SW,222,6.0,11.0,88,0.00,,,0.18,Wunderground v.1.15,2013-04-17 00:17:00,
2013-04-16 20:22:00,56.6,53.1,30.05,WNW,300,5.0,11.0,88,0.00,,,0.18,Wunderground v.1.15,2013-04-17 00:22:00,
2013-04-16 20:27:00,56.7,53.2,30.05,SW,234,5.0,11.0,88,0.00,,,0.18,Wunderground v.1.15,2013-04-17 00:27:00,
2013-04-16 20:33:00,56.8,53.3,30.05,WSW,245,5.0,11.0,88,0.00,,,0.18,Wunderground v.1.15,2013-04-17 00:33:00,
2013-04-16 20:38:00,56.9,53.1,30.06,SSW,212,5.0,11.0,87,0.00,,,0.18,Wunderground v.1.15,2013-04-17 00:38:00,
2013-04-16 20:43:00,56.9,53.1,30.06,SSE,160,5.0,11.0,87,0.00,,,0.18,Wunderground v.1.15,2013-04-17 00:43:00,
2013-04-16 20:49:00,56.9,53.4,30.06,SW,229,4.0,11.0,88,0.00,,,0.18,Wunderground v.1.15,2013-04-17 00:49:00,
2013-04-16 20:55:00,57.0,53.2,30.06,West,269,4.0,11.0,87,0.00,,,0.18,Wunderground v.1.15,2013-04-17 00:55:00,
2013-04-16 21:00:00,57.0,53.5,30.07,SSE,155,4.0,11.0,88,0.00,,,0.18,Wunderground v.1.15,2013-04-17 01:00:00,
2013-04-16 21:05:00,57.0,53.5,30.07,South,191,4.0,11.0,88,0.00,,,0.18,Wunderground v.1.15,2013-04-17 01:05:00,
2013-04-16 21:11:00,57.0,53.5,30.07,SSE,167,5.0,8.0,88,0.00,,,0.18,Wunderground v.1.15,2013-04-17 01:11:00,
2013-04-16 21:16:00,56.9,53.7,30.07,SSW,210,5.0,12.0,89,0.00,,,0.18,Wunderground v.1.15,2013-04-17 01:16:00,
2013-04-16 21:21:00,56.7,53.5,30.07,West,260,5.0,11.0,89,0.00,,,0.19,Wunderground v.1.15,2013-04-17 01:21:00,
2013-04-16 21:26:00,56.3,53.4,30.08,SSE,167,4.0,11.0,90,0.00,,,0.19,Wunderground v.1.15,2013-04-17 01:26:00,
2013-04-16 21:31:00,56.2,53.6,30.09,WNW,293,3.0,11.0,91,0.15,,,0.21,Wunderground v.1.15,2013-04-17 01:31:00,
2013-04-16 21:37:00,55.8,53.5,30.10,NW,311,5.0,11.0,92,0.09,,,0.21,Wunderground v.1.15,2013-04-17 01:37:00,
2013-04-16 21:42:00,55.5,53.5,30.11,WNW,295,5.0,11.0,93,0.08,,,0.22,Wunderground v.1.15,2013-04-17 01:42:00,
2013-04-16 21:47:00,55.2,53.5,30.11,NW,311,5.0,11.0,94,0.06,,,0.22,Wunderground v.1.15,2013-04-17 01:47:00,
2013-04-16 21:52:00,55.0,53.3,30.11,WSW,240,5.0,11.0,94,0.04,,,0.22,Wunderground v.1.15,2013-04-17 01:52:00,
2013-04-16 21:57:00,54.8,53.4,30.12,NW,324,5.0,11.0,95,0.00,,,0.22,Wunderground v.1.15,2013-04-17 01:57:00,
2013-04-16 22:02:00,54.8,53.4,30.12,NNW,328,5.0,11.0,95,0.00,,,0.22,Wunderground v.1.15,2013-04-17 02:02:00,
2013-04-16 22:07:00,54.7,53.3,30.12,WNW,289,4.0,11.0,95,0.00,,,0.23,Wunderground v.1.15,2013-04-17 02:07:00,
2013-04-16 22:13:00,54.6,53.2,30.11,West,280,4.0,11.0,95,0.00,,,0.23,Wunderground v.1.15,2013-04-17 02:13:00,
2013-04-16 22:18:00,54.6,53.2,30.11,West,264,4.0,11.0,95,0.00,,,0.23,Wunderground v.1.15,2013-04-17 02:18:00,
2013-04-16 22:23:00,54.5,53.1,30.11,West,277,4.0,11.0,95,0.00,,,0.23,Wunderground v.1.15,2013-04-17 02:23:00,
2013-04-16 22:29:00,54.3,52.9,30.11,NW,309,3.0,11.0,95,0.00,,,0.24,Wunderground v.1.15,2013-04-17 02:29:00,
2013-04-16 22:34:00,54.2,52.8,30.12,WNW,289,3.0,11.0,95,0.00,,,0.24,Wunderground v.1.15,2013-04-17 02:34:00,
2013-04-16 22:39:00,54.1,52.7,30.12,West,267,4.0,11.0,95,0.16,,,0.26,Wunderground v.1.15,2013-04-17 02:39:00,
2013-04-16 22:45:00,53.6,52.2,30.13,WSW,255,5.0,11.0,95,0.14,,,0.27,Wunderground v.1.15,2013-04-17 02:45:00,
2013-04-16 22:51:00,52.8,51.1,30.12,NW,319,5.0,11.0,94,0.18,,,0.29,Wunderground v.1.15,2013-04-17 02:51:00,
2013-04-16 22:56:00,52.2,50.5,30.13,NNW,342,4.0,11.0,94,0.08,,,0.29,Wunderground v.1.15,2013-04-17 02:56:00,
2013-04-16 23:01:00,51.7,50.0,30.13,WNW,300,4.0,11.0,94,0.05,,,0.29,Wunderground v.1.15,2013-04-17 03:01:00,
2013-04-16 23:06:00,51.0,49.3,30.13,WNW,300,4.0,11.0,94,0.00,,,0.29,Wunderground v.1.15,2013-04-17 03:06:00,
2013-04-16 23:11:00,50.3,48.6,30.14,NNW,328,4.0,11.0,94,0.00,,,0.29,Wunderground v.1.15,2013-04-17 03:11:00,
2013-04-16 23:17:00,49.2,47.3,30.15,North,354,5.0,11.0,93,0.00,,,0.30,Wunderground v.1.15,2013-04-17 03:17:00,
2013-04-16 23:22:00,48.5,46.3,30.15,NW,326,5.0,11.0,92,0.06,,,0.31,Wunderground v.1.15,2013-04-17 03:22:00,
2013-04-16 23:27:00,47.6,45.4,30.15,NNW,329,5.0,11.0,92,0.23,,,0.32,Wunderground v.1.15,2013-04-17 03:27:00,
2013-04-16 23:32:00,47.0,45.1,30.15,NW,311,4.0,11.0,93,0.13,,,0.33,Wunderground v.1.15,2013-04-17 03:32:00,
2013-04-16 23:37:00,46.7,44.8,30.15,WNW,285,4.0,11.0,93,0.08,,,0.33,Wunderground v.1.15,2013-04-17 03:37:00,
2013-04-16 23:42:00,46.4,44.8,30.16,NW,314,3.0,11.0,94,0.05,,,0.33,Wunderground v.1.15,2013-04-17 03:42:00,
2013-04-16 23:47:00,46.3,44.7,30.16,SSW,203,3.0,11.0,94,0.00,,,0.33,Wunderground v.1.15,2013-04-17 03:47:00,
2013-04-16 23:53:00,46.1,44.5,30.16,NW,315,2.0,11.0,94,0.00,,,0.34,Wunderground v.1.15,2013-04-17 03:53:00,
2013-04-16 23:58:00,46.0,44.4,30.16,WNW,288,1.0,11.0,94,0.21,,,0.36,Wunderground v.1.15,2013-04-17 03:58:00,